When you browse on this site, cookies collect data to enhance your experience and personalize the content and advertising you see.
Visit our Privacy Policy to learn more. By continuing to use the site, you agree to this use of cookies and data.
  • en Suisse
  • Liste des pays
  • À 7 jours
  • Température de l'eau
  • Carte satellitaire
  • Carte météo
  • Widgets météo
  • user-avatar
    Se connecter

    Météo par heure à Tovchenykove

    Ce jour, 19 Avril, Vendredi

    Heure Température Précipitation Vent Pression Humidité
    00:00 +7°C° 0.1 mm 2 m/s 751 mmHg 70%
    01:00 +7°C° 0.1 mm 2 m/s 751 mmHg 71%
    02:00 +6°C° 0.1 mm 2 m/s 751 mmHg 73%
    03:00 +6°C° 0 mm 2 m/s 751 mmHg 72%
    04:00 +6°C° 0 mm 1 m/s 752 mmHg 71%
    05:00 +5°C° 0 mm 1 m/s 752 mmHg 70%
    06:00 +6°C° 0 mm 2 m/s 752 mmHg 64%
    07:00 +7°C° 0 mm 2 m/s 752 mmHg 58%
    08:00 +9°C° 0 mm 2 m/s 753 mmHg 52%
    09:00 +10°C° 0 mm 2 m/s 753 mmHg 49%
    10:00 +10°C° 0 mm 3 m/s 753 mmHg 46%
    11:00 +11°C° 0 mm 3 m/s 754 mmHg 43%
    12:00 +11°C° 0 mm 3 m/s 754 mmHg 43%
    13:00 +11°C° 0 mm 3 m/s 754 mmHg 43%
    14:00 +11°C° 0 mm 3 m/s 754 mmHg 43%
    15:00 +11°C° 0 mm 3 m/s 754 mmHg 44%
    16:00 +12°C° 0 mm 2 m/s 754 mmHg 45%
    17:00 +12°C° 0 mm 2 m/s 754 mmHg 46%
    18:00 +10°C° 0 mm 2 m/s 754 mmHg 49%
    19:00 +9°C° 0 mm 2 m/s 754 mmHg 53%
    20:00 +8°C° 0 mm 1 m/s 754 mmHg 56%
    21:00 +8°C° 0 mm 1 m/s 754 mmHg 57%
    22:00 +6°C° 0 mm 2 m/s 754 mmHg 58%
    23:00 +6°C° 0 mm 2 m/s 754 mmHg 59%

    Demain, 20 Avril, Samedi

    Heure Température Précipitation Vent Pression Humidité
    00:00 +7°C° 0 mm 1 m/s 754 mmHg 60%
    01:00 +6°C° 0 mm 1 m/s 754 mmHg 61%
    02:00 +6°C° 0 mm 1 m/s 754 mmHg 62%
    03:00 +6°C° 0 mm 1 m/s 754 mmHg 61%
    04:00 +5°C° 0 mm 0 m/s 754 mmHg 61%
    05:00 +5°C° 0 mm 0 m/s 754 mmHg 60%
    06:00 +6°C° 0 mm 0 m/s 754 mmHg 58%
    07:00 +8°C° 0 mm 1 m/s 754 mmHg 55%
    08:00 +9°C° 0 mm 1 m/s 754 mmHg 52%
    09:00 +10°C° 0 mm 1 m/s 754 mmHg 48%
    10:00 +12°C° 0 mm 1 m/s 753 mmHg 44%
    11:00 +13°C° 0 mm 1 m/s 753 mmHg 40%
    12:00 +13°C° 0 mm 1 m/s 753 mmHg 40%
    13:00 +12°C° 0 mm 1 m/s 753 mmHg 41%
    14:00 +12°C° 0 mm 1 m/s 752 mmHg 41%
    15:00 +12°C° 0 mm 1 m/s 752 mmHg 41%
    16:00 +11°C° 0 mm 0 m/s 752 mmHg 42%
    17:00 +11°C° 0 mm 0 m/s 752 mmHg 42%
    18:00 +11°C° 0 mm 1 m/s 752 mmHg 46%
    19:00 +10°C° 0 mm 1 m/s 752 mmHg 49%
    20:00 +9°C° 0 mm 1 m/s 752 mmHg 52%
    21:00 +8°C° 0 mm 2 m/s 752 mmHg 54%
    22:00 +7°C° 0 mm 2 m/s 752 mmHg 56%
    23:00 +7°C° 0 mm 2 m/s 752 mmHg 58%

    Après-demain, 21 Avril, Dimanche

    Heure Température Précipitation Vent Pression Humidité
    00:00 +6°C° 0 mm 2 m/s 752 mmHg 60%
    01:00 +6°C° 0 mm 2 m/s 752 mmHg 61%
    02:00 +6°C° 0 mm 1 m/s 752 mmHg 63%
    03:00 +6°C° 0 mm 1 m/s 751 mmHg 64%
    04:00 +6°C° 0 mm 1 m/s 751 mmHg 65%
    05:00 +5°C° 0 mm 1 m/s 751 mmHg 67%
    06:00 +7°C° 0 mm 1 m/s 752 mmHg 62%
    07:00 +8°C° 0 mm 2 m/s 752 mmHg 57%
    08:00 +10°C° 0 mm 2 m/s 753 mmHg 52%
    09:00 +10°C° 0 mm 2 m/s 753 mmHg 48%
    10:00 +12°C° 0 mm 2 m/s 753 mmHg 45%
    11:00 +11°C° 0 mm 3 m/s 753 mmHg 42%
    12:00 +13°C° 0 mm 2 m/s 753 mmHg 41%
    13:00 +13°C° 0 mm 2 m/s 753 mmHg 40%
    14:00 +13°C° 0 mm 2 m/s 753 mmHg 40%
    15:00 +13°C° 0 mm 2 m/s 753 mmHg 41%
    16:00 +13°C° 0 mm 2 m/s 753 mmHg 43%
    17:00 +13°C° 0 mm 2 m/s 753 mmHg 45%
    18:00 +10°C° 0 mm 2 m/s 753 mmHg 48%
    19:00 +9°C° 0 mm 2 m/s 753 mmHg 52%
    20:00 +7°C° 0 mm 2 m/s 754 mmHg 56%
    21:00 +7°C° 0 mm 2 m/s 754 mmHg 58%
    22:00 +6°C° 0 mm 2 m/s 754 mmHg 59%
    23:00 +6°C° 0 mm 2 m/s 754 mmHg 60%

    22 Avril, Lundi

    Heure Température Précipitation Vent Pression Humidité
    00:00 +6°C° 0 mm 2 m/s 754 mmHg 61%
    01:00 +6°C° 0 mm 2 m/s 754 mmHg 62%
    02:00 +6°C° 0 mm 1 m/s 755 mmHg 63%
    03:00 +5°C° 0 mm 2 m/s 755 mmHg 64%
    04:00 +5°C° 0 mm 2 m/s 755 mmHg 65%
    05:00 +5°C° 0 mm 2 m/s 755 mmHg 66%
    06:00 +7°C° 0 mm 2 m/s 755 mmHg 62%
    07:00 +8°C° 0 mm 2 m/s 756 mmHg 59%
    08:00 +10°C° 0 mm 2 m/s 756 mmHg 55%
    09:00 +12°C° 0 mm 2 m/s 756 mmHg 50%
    10:00 +13°C° 0 mm 2 m/s 756 mmHg 45%
    11:00 +13°C° 0 mm 2 m/s 756 mmHg 40%
    12:00 +14°C° 0 mm 2 m/s 756 mmHg 40%
    13:00 +14°C° 0 mm 2 m/s 756 mmHg 40%
    14:00 +14°C° 0 mm 2 m/s 756 mmHg 39%
    15:00 +14°C° 0 mm 2 m/s 756 mmHg 41%
    16:00 +14°C° 0 mm 2 m/s 756 mmHg 43%
    17:00 +14°C° 0 mm 2 m/s 756 mmHg 44%
    18:00 +12°C° 0 mm 2 m/s 756 mmHg 48%
    19:00 +11°C° 0 mm 1 m/s 756 mmHg 52%
    20:00 +9°C° 0 mm 1 m/s 757 mmHg 56%
    21:00 +9°C° 0 mm 1 m/s 757 mmHg 57%
    22:00 +9°C° 0 mm 1 m/s 757 mmHg 57%
    23:00 +9°C° 0 mm 1 m/s 757 mmHg 57%

    23 Avril, Mardi

    Heure Température Précipitation Vent Pression Humidité
    00:00 +9°C° 0 mm 1 m/s 757 mmHg 57%
    01:00 +9°C° 0 mm 1 m/s 757 mmHg 56%
    02:00 +9°C° 0 mm 1 m/s 757 mmHg 56%
    03:00 +9°C° 0 mm 1 m/s 758 mmHg 56%
    04:00 +9°C° 0 mm 1 m/s 758 mmHg 57%
    05:00 +9°C° 0 mm 1 m/s 758 mmHg 58%
    06:00 +9°C° 0 mm 2 m/s 758 mmHg 55%
    07:00 +10°C° 0 mm 2 m/s 758 mmHg 53%
    08:00 +13°C° 0 mm 2 m/s 759 mmHg 50%
    09:00 +14°C° 0 mm 2 m/s 758 mmHg 47%
    10:00 +14°C° 0 mm 2 m/s 758 mmHg 43%
    11:00 +15°C° 0 mm 2 m/s 758 mmHg 40%
    12:00 +15°C° 0 mm 2 m/s 758 mmHg 40%
    13:00 +15°C° 0 mm 1 m/s 758 mmHg 41%
    14:00 +15°C° 0 mm 1 m/s 758 mmHg 41%
    15:00 +15°C° 0 mm 1 m/s 758 mmHg 45%
    16:00 +15°C° 0 mm 1 m/s 758 mmHg 50%
    17:00 +13°C° 0 mm 0 m/s 757 mmHg 54%
    18:00 +12°C° 0 mm 0 m/s 757 mmHg 56%
    19:00 +11°C° 0 mm 0 m/s 757 mmHg 57%
    20:00 +10°C° 0 mm 0 m/s 757 mmHg 59%
    21:00 +9°C° 0 mm 0 m/s 757 mmHg 60%
    22:00 +9°C° 0 mm 0 m/s 758 mmHg 62%
    23:00 +8°C° 0 mm 0 m/s 758 mmHg 64%

    24 Avril, Mercredi

    Heure Température Précipitation Vent Pression Humidité
    00:00 +8°C° 0 mm 0 m/s 758 mmHg 64%
    01:00 +7°C° 0 mm 0 m/s 758 mmHg 65%
    02:00 +7°C° 0 mm 0 m/s 758 mmHg 66%
    03:00 +7°C° 0 mm 0 m/s 758 mmHg 67%
    04:00 +7°C° 0 mm 0 m/s 758 mmHg 68%
    05:00 +7°C° 0 mm 0 m/s 758 mmHg 68%
    06:00 +10°C° 0 mm 1 m/s 758 mmHg 63%
    07:00 +12°C° 0 mm 1 m/s 758 mmHg 58%
    08:00 +13°C° 0 mm 1 m/s 758 mmHg 53%
    09:00 +15°C° 0 mm 1 m/s 758 mmHg 49%
    10:00 +16°C° 0 mm 1 m/s 758 mmHg 45%
    11:00 +18°C° 0 mm 1 m/s 758 mmHg 41%
    12:00 +19°C° 0 mm 1 m/s 758 mmHg 40%
    13:00 +19°C° 0 mm 1 m/s 757 mmHg 39%
    14:00 +20°C° 0 mm 1 m/s 757 mmHg 38%
    15:00 +20°C° 0 mm 1 m/s 757 mmHg 39%
    16:00 +19°C° 0 mm 1 m/s 756 mmHg 40%
    17:00 +17°C° 0 mm 0 m/s 756 mmHg 41%
    18:00 +16°C° 0 mm 0 m/s 756 mmHg 45%
    19:00 +15°C° 0 mm 1 m/s 756 mmHg 49%
    20:00 +13°C° 0 mm 1 m/s 756 mmHg 53%
    21:00 +13°C° 0 mm 1 m/s 756 mmHg 55%
    22:00 +12°C° 0 mm 1 m/s 756 mmHg 57%
    23:00 +12°C° 0 mm 2 m/s 756 mmHg 60%
    Voir plus